Regional Weather Roundup
Issued by NWS

Home | Current Version | Previous Version | Graphics & Text | Print | Product List | Glossary On
Versions: 1 2 3 4 5 6 7 8 9 10 11 12 13 14 15 16 17 18 19 20 21 22 23 24 25 26 27
000
ASUS45 KTFX 151610
RWRMT
MONTANA REGIONAL WEATHER ROUNDUP
NATIONAL WEATHER SERVICE GREAT FALLS MT
1000 AM MDT TUE AUG 15 2017

NOTE: "FAIR" INDICATES FEW OR NO CLOUDS BELOW 12000 FEET WITH NO
SIGNIFICANT WEATHER AND/OR OBSTRUCTIONS TO VISIBILITY.

MTZ001>007-043-151700-
WEST OF THE DIVIDE

CITY           SKY/WX    TMP DP  RH WIND       PRES   REMARKS
KALISPELL      SUNNY     61  42  49 CALM      29.95S
MISSOULA       MOSUNNY   56  39  53 S3        29.98F
BUTTE          CLOUDY    56  35  45 N3        30.02F
MULLAN PASS    MOSUNNY   55  33  43 CALM      30.04R
ANACONDA         N/A     61  36  39 SE6       30.00R
DEER LODGE       N/A     54  37  54 NE5       30.03R
EUREKA           N/A     57  43  58 MISG      29.97
HAMILTON         N/A     61  37  41 CALM      29.98F
LIBBY            N/A     57  37  47 CALM      29.95F
RONAN            N/A     63  44  49 CALM      30.01R
$$

MTZ008-052>055-151700-
SOUTHWEST MONTANA

CITY           SKY/WX    TMP DP  RH WIND       PRES   REMARKS
BOZEMAN        SUNNY     64  50  60 CALM      29.99S
DILLON         SUNNY     60  46  59 S5        30.00F
W YELLOWSTONE  CLOUDY    46  46 100 CALM      30.10S
ENNIS          SUNNY     57  46  67 CALM      30.07S
THREE FORKS      N/A     63  47  55 CALM      29.98S
$$

MTZ009-010-012-014-046-048-049-054-151700-
EAST SLOPES AND CENTRAL MONTANA

CITY           SKY/WX    TMP DP  RH WIND       PRES   REMARKS
CUT BANK       SUNNY     59  43  55 CALM      29.94F
GREAT FALLS    SUNNY     63  41  44 N3        29.96S
MALMSTROM AFB  SUNNY     60  44  54 NW5       29.95S
HELENA         SUNNY     62  40  44 N5        29.98R
AUGUSTA          N/A     62  38  41 SW6       29.96R
BOWMANS CRNR     N/A     58  39  50 S5        29.95R
CHOTEAU          N/A     66  37  34 SW3       29.96S
FAIRFIELD        N/A     64  42  46 S7        29.94S
POWER            N/A     61  41  46 SW6       29.94S
RAYNESFORD     PTSUNNY   62  41  46 NW5       29.95F
ULM              N/A     62  42  48 N3        29.95R
$$

MTZ011-013-016-021-045-047-050-051-151700-
NORTH CENTRAL MONTANA

CITY           SKY/WX    TMP DP  RH WIND       PRES   REMARKS
HAVRE          SUNNY     60  46  59 VRB3      29.93F
LEWISTOWN      SUNNY     58  43  57 NW5       29.96S
N BAR RANCH      N/A     66  41  39 N13       29.97S
CHINOOK          N/A     61  46  59 W9        29.92S
DENTON           N/A     60  44  56 NW7       29.91S
GEYSER           N/A     62  37  39 CALM      29.95S
GRASS RANGE      N/A     65  42  43 W14       29.90S
JUDITH GAP       N/A     60  40  48 N17       29.96S
WINIFRED         N/A     59  46  61 NW10      29.94R
$$

MTZ017>020-022>027-061-062-151700-
NORTHEAST MONTANA

CITY           SKY/WX    TMP DP  RH WIND       PRES   REMARKS
GLASGOW        MOSUNNY   65  56  72 NW13      29.85S
SIDNEY         CLOUDY    65  59  81 VRB5      29.85S
WOLF POINT     CLOUDY    61  59  93 E3        29.84S
MALTA          SUNNY     68  46  45 NW9G16    29.88S
POPLAR           N/A     63  61  94 E3        29.84S
$$

MTZ028>42-056>058-151700-
SOUTHCENTRAL AND SOUTHEAST MONTANA

CITY           SKY/WX    TMP DP  RH WIND       PRES   REMARKS
BAKER          CLOUDY    63  57  81 E5        29.87S
BILLINGS       PTSUNNY   65  45  48 SW8       29.91R
LIVINGSTON     SUNNY     67  47  48 NW13      29.96F
MILES CITY     CLOUDY    65  55  70 CALM      29.86R
BIG TIMBER     SUNNY     66  45  45 W14       29.98S
FORSYTH          N/A     68  54  60 W3        29.86R
HARLOWTON        N/A     67  36  32 MISG      29.94F
LAUREL           N/A     65  49  56 SW2       29.92S
$$

REGIONAL REPORTS...DAKOTAS

CITY           SKY/WX    TMP DP  RH WIND       PRES   REMARKS
WILLISTON      CLOUDY    67  62  84 S5        29.85S
MINOT          LGT RAIN  64  62  93 E7        29.88S FOG
DICKINSON      CLOUDY    61  60  97 E8        29.86S FOG
BEACH          CLOUDY    63  63 100 SE6       29.90S
CROSBY           N/A     66  64  94 S6        29.86S
TIOGA          PTSUNNY   66  66 100 S9        29.88R
WATFORD CITY     N/A     66  63  88 S5        29.86R
BISMARCK       CLOUDY    69  62  78 SE10      29.87F
GRAND FORKS    CLOUDY    74  63  68 S13       29.92S
FARGO          MOSUNNY   72  63  73 SE10      29.94S
BUFFALO SD       N/A     62  61  96 SE3       29.82R
RAPID CITY     CLOUDY    64  62  93 S7        29.90R
$$

REGIONAL REPORTS...WYOMING/IDAHO/WASHINGTON

CITY           SKY/WX    TMP DP  RH WIND       PRES   REMARKS
GILLETTE       LGT RAIN  62  57  83 SW10      29.93R
SHERIDAN       LGT RAIN  59  54  83 W9        29.94S
BUFFALO WY     LGT RAIN  57  51  80 NW13      29.98R
CODY           CLOUDY    57  49  74 SW12G18   30.00S
YELLOWSTONE LA   N/A     50  43  77 CALM      30.14R
IDAHO FALLS    CLOUDY    60  52  74 CALM      30.03S
SALMON         SUNNY    N/A N/A N/A CALM      29.99F
BOISE          SUNNY     68  42  38 E5        29.92S
SPOKANE        MOSUNNY   62  41  46 NE5       29.93S
$$

REGIONAL REPORTS...ALBERTA

CITY           SKY/WX    TMP DP  RH WIND       PRES   REMARKS
EDMONTON       SUNNY     59  46  63 W13       29.79R
CALGARY        MOSUNNY   57  41  54 N5        29.91S
LETHBRIDGE     SUNNY     55  46  71 SW7       29.91S
MEDICINE HAT   SUNNY     57  50  77 SW13      29.90S
$$

REGIONAL REPORTS...SASKATCHEWAN

CITY           SKY/WX    TMP DP  RH WIND       PRES   REMARKS
SWIFT CURRENT  SUNNY     59  48  67 W16G23    29.86S
REGINA         CLOUDY    63  59  88 W7        29.85R
SASKATOON      CLOUDY    57  54  88 S15       29.79R
$$




USA.gov is the U.S. government's official web portal to all federal, state and local government web resources and services.